Regional Weather Roundup
Issued by NWS Wakefield, VA

Home | Current Version | Previous Version | Graphics & Text | Print | Product List | Glossary On
Versions: 1 2 3 4 5 6 7 8 9 10 11 12 13 14 15 16 17 18 19 20 21 22 23 24 25 26 27
000
ASUS41 KAKQ 170315
RWRAKQ

REGIONAL WEATHER ROUNDUP
NATIONAL WEATHER SERVICE WAKEFIELD VA
1000 PM EST SAT DEC 16 2017

Note: "fair" indicates few or no clouds below 12,000 feet with no
significant weather and/or obstructions to visibility. * = Denotes
station may not report precipitation (e.g., rain,snow,etc.),
thunder or fog.

VAZ042-051-052>054-056-170400-
NORTHERN VIRGINIA

CITY           SKY/WX    TMP DP  RH WIND       PRES   REMARKS
WASH NATIONAL  CLEAR     39  26  59 S5        30.19R
DULLES         CLEAR     28  23  81 SE5       30.17R
FORT BELVOIR   CLEAR     29  23  77 CALM      30.19R
QUANTICO       CLEAR     34  28  79 CALM      30.20R
FREDERICKSBRG* CLEAR     35  26  70 CALM      30.18S
STAFFORD*      CLEAR     38  26  60 CALM      30.22S
WARRENTON      CLEAR     28  20  74 CALM      30.17R
CULPEPER*      CLEAR     29  22  74 CALM      30.18R
MANASSAS*      CLEAR     24  21  88 CALM      30.19R
LEESBURG*      CLEAR     30  27  86 CALM      30.18S
WINCHESTER     CLEAR     30  21  69 CALM      30.15R
FRONT ROYAL*   CLEAR     30  23  74 CALM      30.14R
LURAY*         CLEAR     36  27  69 SW7       30.15R
$$

VAZ048-049-060>072-079>083-170400-
CENTRAL AND SOUTH CENTRAL VIRGINIA

CITY           SKY/WX    TMP DP  RH WIND       PRES   REMARKS
RICHMOND       CLEAR     37  24  59 S7        30.21R
CHESTERFIELD*  NOT AVBL
PETERSBURG*    CLOUDY    37  23  56 SW5       30.23R
HANOVER        CLEAR     41  24  51 SW6       30.21R
TAPPAHANNOCK*  CLEAR     37  25  63 S5        30.21R
QUINTON*       FAIR      34  26  72 S5        30.21R
CHARLOTTSVILLE CLEAR     41  25  53 SW8       30.16R
GORDONSVILLE*  CLEAR     28  23  84 W5        30.17S
ORANGE*        CLEAR     32  25  74 CALM      30.17S
LOUISA*        CLEAR     34  23  64 SW5       30.22R
BUMPASS*       FAIR      35  22  60 CALM      30.18S
FARMVILLE*     CLOUDY    37  28  67 SW7       30.21R
CREWE*         FAIR      34  25  69 CALM      30.21S
FORT PICKETT*  NOT AVBL
CHASE CITY*    FAIR      32  24  72 CALM      30.23R
CLARKSVILLE*   FAIR      36  27  69 S3        30.24R
SOUTH HILL*    CLOUDY    34  26  70 S6        30.30R
LAWRENCEVILLE* FAIR      32  25  74 CALM      30.23S
EMPORIA*       CLEAR     32  25  74 S3        30.26R
$$

VAZ088>098-170400-
SOUTHEAST VIRGINIA

CITY           SKY/WX    TMP DP  RH WIND       PRES   REMARKS
NORFOLK        CLEAR     35  25  66 SW8       30.23S
VIRGINIA BEACH CLEAR     35  23  61 SW7       30.24R
NORFOLK NAVAL  CLEAR     41  25  53 SW8       30.25R
WEST POINT*    CLEAR    N/A N/A N/A CALM      30.24R
SALUDA*        FAIR      39  26  59 SW7       30.22R
NEWPORT NEWS   CLEAR     40  26  57 SW8       30.24R
LANGLEY AFB    CLEAR     40  26  56 SW6       30.23R
FORT EUSTIS    CLEAR     40  26  58 CALM      30.21R
WILLIAMSBURG*  CLEAR     41  27  56 CALM      30.24R
HR EXEC AP*    FAIR      26  23  88 CALM      30.25S
FRANKLIN*      CLEAR     33  25  72 S3        30.26R
US460-WAKEFLD  CLEAR     35  26  69 CALM      30.24R
$$

VAZ020-022-025-037-045-170400-
WEST CENTRAL AND SOUTHWEST VIRGINIA

CITY           SKY/WX    TMP DP  RH WIND       PRES   REMARKS
STAUNTON*      CLEAR     35  22  59 CALM      30.18R
WAYNESBORO*    CLEAR     36  23  58 SW6       30.16S
HOT SPRINGS VA CLEAR     34  20  56 W18G26    30.11R WCI  23
LYNCHBURG      CLOUDY    35  24  64 S5        30.20R
DANVILLE       CLOUDY    34  24  67 S7        30.23S
SOUTH BOSTON*  FAIR      38  23  54 SW5       30.23S
MARTINSVILLE   CLOUDY    27  22  80 CALM      30.25R
ROANOKE        CLOUDY    38  24  57 NW8       30.20S
BLACKSBURG     CLOUDY    31  24  74 CALM      30.22R
DUBLIN*        CLOUDY    34  25  68 S6        30.20S
MARION*        CLOUDY    33  24  68 W12       30.24R WCI  24
HILLSVILLE*    CLOUDY    31  22  69 CALM      30.17R
RICHLANDS*     FAIR      36  24  62 SW8       30.21R
WISE*          CLOUDY    34  28  80 SW8       30.21S
ABINGDON*      CLOUDY    32  26  78 CALM      30.25R
$$

MDZ021>025-VAZ099-100-170400-
SOUTHERN MARYLAND AND THE DELMARVA PENINSULA

CITY           SKY/WX    TMP DP  RH WIND       PRES   REMARKS
PATUXENT RIVER CLEAR     40  25  55 SW10      30.19R
BAY BRIDGE APT CLEAR     39  27  60 SW5       30.18S
LEONARDTOWN    CLEAR     37  27  65 SW6         N/A
DOVER          PTCLDY    34  29  81 SW7       30.19R
GEORGETOWN     CLEAR     33  25  72 S5        30.21R
EASTON         NOT AVBL
CAMBRIDGE        N/A     32  27  80 S3        30.20R
SALISBURY      CLEAR     33  29  85 S5        30.21R
OCEAN CITY     CLEAR     37  28  70 SW8       30.22R
WALLOPS ISLAND CLEAR     40  28  62 SW9       30.22R
ACCOMACK*      CLEAR     39  30  69 SW7       30.22S
$$

NCZ012>017-030>032-170400-
NORTH CENTRAL AND EASTERN NORTH CAROLINA

CITY           SKY/WX    TMP DP  RH WIND       PRES   REMARKS
ROANOKE RAPIDS FAIR      32  27  80 CALM      30.26R
RALEIGH        CLOUDY    35  25  66 CALM      30.26S
ELIZABETH CITY CLEAR     34  30  85 SW6       30.26R
AHOSKIE*       CLOUDY    28  25  87 CALM      30.27R
EDENTON*       NOT AVBL
CURRITUCK*     CLEAR     34  29  82 SW5       30.26S
KILL DEVIL HLS CLEAR     38  30  73 CALM      30.25S
MANTEO         CLEAR     39  32  74 SW6       30.27S
CAPE HATTERAS  CLEAR     36  33  89 W5        30.27F
TARBORO*       NOT AVBL
GOLDSBORO      CLOUDY    33  27  78 CALM      30.27R
WASHINGTON     CLEAR     34  28  77 CALM      30.28S
GREENVILLE     CLEAR     32  28  86 CALM      30.28S
NEW BERN       PTCLDY    30  29  96 S3        30.30R
WILMINGTON     CLEAR     34  31  88 CALM      30.31R
$$

VAZ048-170400-
ELSEWHERE

CITY           SKY/WX    TMP DP  RH WIND       PRES   REMARKS
HARRISBURG PA  PTCLDY    32  28  85 CALM      30.15R
BALTIMORE      CLEAR     30  24  78 CALM      30.17R
ANNAPOLIS      CLEAR     33  28  81 CALM      30.18R
ANDREWS AFB    CLEAR     33  23  65 SW5       30.17R
PHILADELPHIA   CLOUDY    38  28  67 SW5       30.19R
HENDERSON NC   CLOUDY    32  22  66 SW7       30.24S
GREENSBORO     CLOUDY    38  24  57 CALM      30.23R
ROCKY MOUNT    CLOUDY    32  27  81 CALM      30.27S
$$

VAZ100-170400-
MARINE

STATION/POSITION TIME  TEMP    WIND        PRES    WAVE   SWELL
                       AIR SEA DIR/SP/G            HT/PER HT/PER
                 (UTC) (F)     (DEG/KT/KT) (MB)    (FT/S) (FT/S)
BRANDYWINE LGT   0242   42     240/ 18/ 21 1022.4R
CAPE MAY NJ      0242   42 40  250/ 15/ 18 1021.7R
LEWES DE         0242   39 41  240/  7/ 11 1022.3R
15NM E FENWICK I 0250   47 51  240/ 19/ 23 1022.8R   4/ 5
OCEAN-CITY-INLET 0242   40 44  260/  9/ 11 1023.4R
WACHAPREAGUE VA  0242   39 39  230/  2/  4 1023.5R
THOMAS POINT MD  0300   40 43  250/  4/  5   N/A
GOOSES REEF MD   0300   44 45  230/ 12/ 16 1022.6    1/ 3
COVE POINT MD    0242   42     240/ 13/ 16 1022.8R
SOLOMONS ISLAND  0242   42 44  220/ 10/ 12 1022.1R
BISHOPS HEAD MD  0242   42 37  220/  8/ 10 1022.8R
PINEY POINT MD   0236          240/  5/  8   N/A
POTOMAC MD       0300   43 45  220/ 12/ 14 1022.1    1/ 2
CAMBRIDGE MD     0242   37 39              1023.0R
LEWISETTA VA     0242   40 39  230/  9/ 11 1022.7R
RAPPAHANNOCK LGT 0236          210/ 15/ 16 1023.9R
STINGRAY PT      0300   43 44  250/ 12/ 16 1023.4    1
YORK RVR RNG VA  0236   43     250/ 10/ 11 1023.9R
YORKTOWN VA      0236   43 46  230/  7/ 10 1023.2R
JAMESTOWN VA     0300      43  220/  6/  8   N/A
DOMINION TERM VA 0236   42     230/  8/ 10 1023.9R
KIPTOPEKE VA     0236      44  230/ 10/ 12   N/A
CAPE HENRY VA    0236   41     220/  8/ 12   N/A
WILLOUBY STN VA  0236          220/ 12/ 14 1023.6R
S CRANEY ISL VA  0236   41     210/  6/  9 1023.6S
CAPE HENRY BUOY  0300      52                N/A     2/ 4
1ST LANDING BUOY 0300   43 46  240/ 12/ 16 1023.9    1/ 2
CAPE CHARLES BUO 0251      51                N/A     2/ 3
64NM E OF VA BCH 0250   49 59  270/ 17/ 21 1024.4R   4/ 4
DUCK PIER NC     0236   42 52  230/  7/  8 1024.0R
44100 DUCK FRF   0245      54                N/A     2/11
44056 DUCK FRF   0300      54                N/A     1/ 9
OREGON INLET NC  0236   43 47  230/  6/  9 1025.0R
HATTERAS NC      0236   43 52  250/  4/  5 1025.0S
DIAMOND SHLS NC  0300   52 72  280/ 14/ 17 1025.2
CAPE LOOKOUT NC  0300          310/  8/  9 1025.9R
$$




USA.gov is the U.S. government's official web portal to all federal, state and local government web resources and services.